Lid_Strength_Index
2 2 2 2 2 2 2 2 2 2 2 2 2 2 3 3 3 5 10 6 5 -2 -2 2 1 2 2 4 4 4 10 12 11 11 10 7 8 6 4 6 5 4 5 3 2
2 2 2 2 2 2 2 2 2 2 2 2 2 2 2 2 5 8 3 -0 -2 -3 3 5 6 3 5 5 5 7 10 10 8 8 9 7 7 7 7 7 7 6 4 3 2
2 2 2 2 2 2 2 2 2 2 3 2 2 2 2 2 7 7 -1 -3 -2 -1 5 6 5 6 7 5 6 7 10 8 8 7 6 7 7 6 7 8 6 6 5 4 3
2 2 2 2 2 2 2 2 2 2 3 2 2 2 2 3 8 4 -3 -2 -3 2 6 6 5 7 6 8 6 9 7 7 7 6 6 8 6 7 6 6 4 4 4 4 4
2 2 2 2 2 2 2 2 3 3 3 2 2 2 2 7 7 0 -2 -2 -0 5 6 6 5 5 8 7 7 8 8 7 6 6 6 6 8 8 7 5 3 4 4 4 4
3 3 3 3 3 3 3 3 3 3 3 2 2 2 3 9 5 -1 -0 2 4 5 6 6 5 4 6 7 8 7 7 7 7 7 6 8 8 7 6 5 5 4 4 4 3
3 3 3 3 3 3 4 4 4 3 2 2 1 1 4 6 2 -1 1 4 4 4 6 5 2 4 5 8 6 7 9 8 8 7 8 7 10 9 6 5 6 5 4 4 3
3 3 3 3 3 3 4 4 4 2 2 1 1 2 6 3 1 2 4 5 5 4 4 4 1 4 5 5 7 8 9 12 9 8 7 7 13 8 6 6 6 6 5 4 4
3 3 3 3 3 4 4 4 2 1 1 1 2 3 6 1 2 2 3 5 5 5 4 3 2 5 6 8 10 9 11 12 11 7 8 9 11 7 6 6 7 6 5 4 4
3 3 3 3 4 4 4 4 0 1 1 1 2 5 4 5 2 3 4 4 5 5 6 6 5 7 8 9 11 11 10 11 12 9 9 10 10 8 7 7 7 6 5 5 4
3 4 4 4 4 4 3 2 5 5 3 5 5 6 5 2 2 3 4 4 5 5 7 7 7 8 8 8 8 9 10 10 10 8 10 10 10 8 7 7 7 6 6 5 4
4 4 4 4 4 4 5 7 4 4 6 4 4 4 4 3 5 5 4 5 5 7 8 8 8 6 7 7 8 9 9 10 10 9 9 10 11 8 7 7 6 6 6 5 4
4 4 4 5 5 5 5 5 3 4 6 7 6 5 4 4 5 5 4 6 6 8 8 8 7 6 8 8 9 8 9 9 10 10 9 10 11 10 8 7 6 5 5 5 5
4 4 5 6 6 5 5 3 3 4 9 9 7 6 4 4 6 3 3 4 7 8 9 8 7 9 10 10 8 10 7 8 10 11 13 10 15 11 9 9 7 6 6 5 4
4 5 6 6 7 6 5 4 4 6 14 9 7 3 4 5 5 6 4 5 8 8 8 8 8 9 10 9 8 9 7 8 10 11 12 12 14 11 10 10 9 7 6 5 4
4 5 5 6 6 4 4 4 7 11 15 8 7 7 6 6 7 6 6 5 6 8 8 8 7 8 9 8 7 6 9 10 10 12 15 12 13 11 10 10 8 7 6 5 4
5 6 6 5 5 4 4 7 10 14 10 10 10 7 7 8 8 7 7 8 8 10 10 9 8 7 8 8 7 7 10 12 14 16 13 11 13 10 8 7 7 7 6 5 4
6 6 6 5 4 4 5 8 13 12 11 9 9 9 9 8 7 8 8 9 8 9 10 11 11 8 7 8 8 8 8 11 14 16 12 12 14 9 7 6 6 5 5 5 4
6 4 4 3 3 4 7 11 11 12 9 9 9 11 10 9 8 8 8 8 7 8 10 11 10 7 8 7 6 8 10 7 11 11 13 11 10 7 7 7 7 6 6 6 5
5 4 4 3 3 5 7 11 10 9 7 8 10 10 11 10 9 9 9 7 8 8 6 8 10 8 7 7 7 7 6 10 10 14 14 12 13 11 9 8 7 7 6 6 5
5 5 3 3 5 5 9 9 9 7 7 8 9 9 9 9 9 10 9 8 8 8 7 7 8 9 8 8 8 8 8 9 9 11 13 14 11 8 8 7 7 7 6 5 5
5 7 2 3 6 9 8 8 9 7 6 7 7 8 8 9 9 9 10 8 8 8 9 7 8 10 9 8 8 7 8 8 10 12 11 12 11 7 7 6 6 6 5 5 4
6 5 2 4 9 9 7 7 7 7 7 7 8 7 7 8 10 8 8 7 7 8 8 8 9 11 10 9 8 9 9 8 8 9 12 12 10 7 7 7 6 6 5 5 5
5 8 5 5 6 8 9 9 9 6 7 6 7 7 8 9 8 9 9 8 6 7 3 6 9 9 11 9 8 9 9 8 8 10 10 10 9 7 8 7 6 6 5 5 5
6 8 7 10 8 8 8 8 9 10 7 6 8 8 9 10 10 10 8 7 6 4 6 8 9 9 9 8 9 8 8 9 8 8 10 8 10 7 7 7 6 5 5 5 5
7 8 7 9 8 8 8 9 10 9 8 9 9 8 8 10 9 10 9 8 8 6 7 8 9 10 10 9 9 10 8 8 8 8 9 8 9 6 6 6 6 6 6 6 5
5 5 6 10 8 9 8 9 9 7 7 7 8 8 9 8 7 6 6 6 7 8 8 8 9 10 11 10 10 11 9 8 8 7 7 10 7 6 7 7 6 6 5 5 5